Probability
48 55 71 68 68 74 74 68 71 77 77 81 81 74 81 81 71 65 61 58 61 68 68 61 61 58 58 58 45 48 52 58 52 55 55 52 52 55 58 58 52 42 65
45 58 71 74 71 77 77 74 71 81 81 84 84 77 81 74 71 68 68 68 71 71 68 61 58 61 58 58 42 42 35 42 42 52 55 55 55 55 58 61 52 48 65
58 61 61 71 81 81 81 84 81 81 81 84 77 77 71 71 74 74 68 65 74 71 71 55 48 58 55 58 52 45 35 35 39 48 52 39 45 52 58 55 48 61 55
58 65 61 81 81 77 71 81 77 81 84 81 84 77 74 71 74 71 68 68 77 77 71 65 58 58 58 55 55 42 39 42 48 39 32 29 23 45 48 45 45 52 58
71 68 68 74 81 74 71 74 81 77 81 81 81 77 74 65 65 68 65 61 61 68 68 61 65 61 61 45 52 42 42 42 45 42 32 32 39 52 39 32 39 48 55
61 55 65 81 74 71 74 74 74 77 74 74 77 71 74 71 68 65 58 61 58 61 58 58 58 61 58 55 45 45 42 42 35 26 26 32 39 58 55 39 29 39 45
61 58 58 81 77 71 74 74 77 77 77 81 74 71 65 74 74 68 61 58 52 55 55 52 55 52 52 48 48 45 39 42 29 13 16 23 45 55 52 55 26 23 29
58 65 68 84 77 74 74 71 74 74 68 71 65 65 65 68 74 71 65 58 55 48 52 52 48 48 42 45 45 45 45 42 23 13 23 26 55 55 55 55 45 35 23
48 61 58 71 77 77 77 74 74 74 71 68 68 68 65 65 68 61 61 52 55 55 48 48 48 39 39 39 42 45 48 52 29 10 6 23 52 52 52 52 48 48 39
42 58 71 68 61 71 74 74 74 77 71 71 61 65 68 61 52 52 61 61 58 58 55 48 42 35 35 35 42 42 48 52 19 16 10 29 58 48 42 39 39 42 32
52 58 55 58 65 61 58 65 71 74 71 74 68 68 71 58 55 58 55 61 58 52 52 55 45 45 42 42 48 52 45 16 19 16 23 52 55 48 48 35 29 32 39
45 55 58 55 58 61 65 71 74 65 74 77 77 71 74 68 61 48 61 61 58 52 52 55 55 52 42 29 39 48 19 23 26 23 29 58 58 55 48 42 35 29 29
42 61 61 55 58 65 71 65 65 68 77 71 71 74 74 71 65 55 58 52 61 58 55 58 52 35 26 45 32 32 23 19 19 29 39 55 52 48 42 39 39 35 32
55 45 55 58 58 65 68 71 71 68 71 71 77 68 74 81 74 68 61 55 55 58 61 55 48 48 42 35 29 26 23 23 23 29 35 52 42 42 39 35 35 32 32
48 52 61 68 84 84 77 77 68 74 65 68 71 77 74 81 71 68 58 71 65 61 58 58 45 48 42 32 26 23 29 26 19 26 29 45 48 48 39 35 29 29 26
55 61 65 65 84 81 84 81 81 74 77 74 74 74 71 81 77 71 77 71 71 65 65 61 48 45 45 39 35 29 29 29 29 26 26 35 48 55 42 35 29 29 32
68 71 68 68 77 77 77 77 71 74 71 74 74 65 68 71 74 77 77 74 71 68 61 61 55 52 45 35 39 32 26 29 29 35 19 23 29 35 45 48 45 23 26
71 74 71 61 77 74 77 81 74 71 74 74 71 68 68 68 65 74 77 74 74 71 71 65 61 58 55 52 48 35 35 35 42 42 35 32 23 19 39 39 39 39 26
71 77 74 84 81 71 74 81 71 77 74 71 71 71 65 65 61 65 74 77 71 74 65 55 65 61 55 42 45 39 32 39 45 42 42 39 29 26 19 23 45 39 32
74 74 77 81 81 81 77 81 74 74 71 74 74 71 68 65 65 68 71 71 68 68 71 71 61 68 65 48 32 35 35 39 39 35 32 29 39 32 16 19 16 19 26
74 77 74 71 74 81 81 74 77 74 74 74 74 71 65 61 65 65 61 65 65 68 74 65 58 55 58 52 39 32 39 32 35 45 39 35 32 29 23 19 23 13 13
71 71 71 71 71 74 74 77 81 74 74 71 71 68 61 55 61 52 68 61 68 68 65 68 65 61 48 52 29 26 23 29 29 19 32 32 19 26 23 16 26 19 19
68 71 71 74 74 71 71 71 71 81 71 71 71 68 65 58 58 61 65 61 65 65 65 65 61 61 58 42 35 32 29 23 26 29 26 19 26 23 23 19 16 16 13
58 68 68 74 74 71 71 68 68 71 68 71 71 68 61 55 55 65 68 65 65 61 65 61 58 58 55 48 45 45 42 35 29 19 23 26 26 23 13 16 10 16 26
45 48 61 68 71 68 68 68 68 65 65 68 68 68 65 52 58 58 58 65 65 65 65 61 61 58 55 52 42 42 35 35 26 26 16 23 19 23 29 29 26 19 23
32 35 45 58 65 65 65 61 65 58 58 61 55 52 52 58 58 58 55 58 58 58 58 58 61 58 55 55 45 42 35 32 29 26 19 19 23 19 26 26 26 23 23
Height
5885 5883 5882 5881 5880 5880 5879 5878 5877 5875 5874 5873 5872 5871 5870 5870 5869 5868 5867 5866 5866 5866 5866 5866 5866 5867 5867 5867 5867 5868 5868 5869 5869 5870 5871 5872 5873 5875 5876 5877 5878 5879 5880
5885 5883 5882 5881 5880 5880 5879 5878 5877 5875 5874 5873 5872 5871 5871 5870 5868 5867 5866 5865 5865 5865 5865 5866 5866 5866 5867 5867 5867 5868 5868 5869 5869 5870 5871 5872 5873 5875 5876 5877 5877 5878 5879
5885 5884 5883 5881 5880 5880 5879 5878 5877 5876 5875 5873 5873 5872 5871 5870 5868 5866 5864 5863 5863 5863 5864 5865 5866 5866 5867 5867 5868 5868 5869 5869 5870 5870 5871 5872 5873 5874 5875 5876 5877 5878 5879
5885 5884 5883 5882 5881 5880 5879 5878 5877 5876 5875 5873 5873 5872 5871 5869 5868 5866 5863 5861 5861 5862 5863 5864 5865 5867 5867 5868 5868 5869 5869 5870 5870 5871 5871 5872 5873 5874 5875 5876 5877 5878 5879
5885 5884 5883 5881 5881 5880 5879 5878 5877 5876 5874 5873 5873 5872 5870 5869 5868 5866 5864 5862 5861 5862 5863 5864 5865 5866 5867 5868 5869 5869 5869 5870 5870 5871 5872 5873 5873 5874 5875 5876 5877 5878 5879
5885 5884 5882 5881 5880 5879 5878 5877 5876 5876 5875 5874 5873 5871 5870 5869 5868 5866 5865 5864 5863 5863 5863 5864 5865 5866 5867 5868 5868 5869 5869 5870 5870 5872 5872 5873 5873 5874 5875 5876 5877 5878 5879
5885 5883 5882 5881 5880 5879 5878 5877 5876 5875 5875 5874 5873 5871 5870 5869 5868 5867 5866 5865 5864 5864 5864 5865 5865 5866 5867 5868 5868 5869 5869 5870 5871 5872 5873 5873 5874 5875 5875 5876 5877 5878 5879
5884 5883 5881 5880 5879 5879 5878 5877 5876 5875 5874 5873 5872 5871 5870 5869 5868 5867 5866 5865 5865 5864 5865 5865 5865 5866 5867 5867 5868 5869 5869 5870 5871 5872 5873 5874 5875 5875 5876 5876 5877 5878 5878
5883 5882 5881 5880 5879 5878 5877 5876 5875 5874 5874 5873 5872 5871 5870 5869 5868 5867 5867 5866 5865 5864 5865 5865 5865 5866 5867 5867 5868 5869 5870 5870 5871 5873 5874 5874 5875 5876 5876 5876 5877 5878 5878
5883 5881 5880 5879 5878 5878 5877 5875 5875 5874 5873 5872 5871 5870 5869 5869 5868 5867 5867 5866 5865 5865 5865 5865 5866 5866 5867 5867 5868 5869 5870 5870 5871 5872 5873 5874 5875 5875 5876 5876 5877 5877 5878
5882 5881 5880 5879 5878 5877 5876 5875 5874 5873 5872 5871 5871 5870 5869 5868 5867 5867 5866 5866 5866 5865 5865 5865 5865 5866 5866 5867 5867 5868 5869 5870 5871 5872 5873 5873 5874 5875 5876 5876 5876 5877 5877
5882 5880 5879 5878 5877 5876 5875 5873 5873 5872 5871 5870 5870 5869 5868 5867 5867 5866 5866 5865 5865 5864 5864 5864 5865 5865 5866 5866 5867 5868 5869 5870 5871 5871 5872 5873 5874 5874 5875 5875 5876 5876 5876
5880 5879 5878 5877 5876 5875 5874 5872 5871 5871 5870 5869 5868 5868 5867 5866 5866 5865 5865 5865 5864 5864 5864 5864 5864 5865 5865 5866 5867 5868 5868 5869 5870 5871 5871 5872 5873 5873 5874 5874 5875 5875 5876
5879 5878 5877 5876 5875 5874 5873 5872 5870 5869 5869 5868 5867 5866 5865 5865 5865 5864 5864 5864 5864 5863 5862 5862 5863 5864 5865 5865 5866 5867 5868 5868 5869 5870 5870 5871 5872 5872 5873 5873 5874 5874 5874
5878 5877 5876 5875 5874 5873 5872 5871 5869 5868 5867 5866 5866 5865 5864 5864 5863 5863 5863 5862 5863 5862 5861 5861 5862 5863 5863 5864 5865 5866 5866 5867 5868 5869 5869 5870 5871 5871 5871 5872 5872 5872 5873
5876 5875 5874 5873 5872 5871 5870 5870 5868 5867 5866 5865 5864 5863 5862 5862 5862 5861 5861 5861 5861 5861 5861 5861 5861 5862 5862 5863 5863 5864 5864 5865 5866 5867 5868 5868 5869 5869 5870 5870 5871 5871 5871
5874 5873 5872 5871 5871 5870 5869 5868 5867 5866 5865 5864 5863 5862 5861 5860 5860 5860 5860 5860 5860 5860 5860 5860 5860 5861 5861 5861 5862 5862 5863 5863 5864 5865 5866 5867 5867 5867 5868 5868 5869 5869 5870
5872 5871 5870 5869 5868 5867 5867 5866 5865 5864 5863 5862 5861 5860 5860 5859 5858 5858 5858 5858 5859 5859 5859 5859 5859 5859 5860 5860 5860 5861 5861 5862 5862 5863 5864 5864 5865 5866 5866 5866 5867 5867 5867
5869 5868 5867 5866 5866 5865 5864 5864 5863 5862 5861 5860 5860 5859 5858 5857 5856 5856 5857 5856 5857 5857 5857 5857 5858 5858 5858 5858 5858 5859 5859 5860 5861 5861 5862 5862 5863 5864 5864 5864 5865 5865 5865
5866 5865 5864 5863 5863 5862 5862 5861 5861 5860 5859 5858 5857 5857 5856 5855 5854 5854 5854 5854 5855 5855 5855 5855 5856 5856 5856 5856 5856 5856 5857 5858 5858 5859 5859 5860 5861 5862 5862 5863 5863 5863 5863
5862 5862 5861 5860 5859 5859 5859 5858 5858 5857 5857 5856 5855 5854 5854 5853 5852 5852 5852 5852 5852 5852 5853 5853 5853 5854 5854 5854 5854 5854 5855 5855 5856 5856 5857 5858 5859 5859 5860 5860 5861 5861 5861
5858 5858 5858 5857 5856 5856 5855 5855 5855 5854 5853 5853 5852 5851 5851 5850 5850 5849 5849 5849 5850 5850 5850 5850 5851 5851 5851 5851 5851 5851 5852 5853 5853 5854 5855 5855 5856 5857 5857 5857 5858 5858 5859
5854 5854 5854 5853 5853 5852 5852 5852 5851 5850 5850 5850 5849 5848 5848 5847 5847 5846 5846 5846 5847 5847 5847 5848 5848 5849 5849 5849 5849 5849 5850 5850 5850 5851 5852 5852 5853 5854 5854 5855 5855 5856 5856
5850 5850 5849 5849 5849 5848 5848 5848 5847 5847 5846 5846 5845 5845 5844 5843 5843 5843 5843 5843 5843 5844 5844 5845 5845 5846 5846 5846 5846 5846 5847 5847 5848 5848 5849 5849 5850 5850 5851 5852 5852 5852 5853
5845 5845 5845 5845 5845 5844 5844 5843 5843 5843 5842 5842 5841 5841 5840 5840 5839 5839 5839 5839 5839 5840 5841 5841 5842 5842 5843 5843 5844 5844 5844 5844 5845 5845 5846 5847 5847 5847 5847 5848 5849 5849 5850
5840 5840 5840 5840 5840 5839 5839 5839 5839 5838 5838 5838 5837 5837 5836 5836 5836 5835 5835 5835 5836 5836 5837 5838 5838 5839 5839 5840 5840 5840 5841 5841 5841 5842 5843 5843 5844 5844 5844 5845 5846 5846 5847
Wind_Speed
7 6 6 6 6 5 6 5 5 5 4 4 3 3 3 2 2 2 2 2 2 2 2 2 1 1 1 1 2 4 4 4 4 5 6 5 5 6 5 6 6 5 5
7 7 6 6 5 5 6 6 6 5 5 4 4 4 3 3 3 3 3 3 3 3 3 2 2 2 1 2 3 3 3 4 5 5 5 5 5 4 5 5 6 6 5
7 6 6 6 6 6 6 7 7 6 5 5 4 4 4 4 4 4 3 3 3 3 3 3 2 2 2 2 3 3 4 5 4 4 4 4 5 4 5 5 6 6 5
7 6 6 6 6 6 7 7 7 6 5 5 5 5 5 5 4 4 3 2 2 3 3 3 3 2 2 2 2 2 3 3 3 3 4 4 5 5 4 4 4 5 4
7 6 6 6 6 7 7 7 7 6 6 5 5 5 4 5 4 3 3 2 1 2 3 3 3 3 3 2 2 2 3 3 3 4 4 3 3 4 4 4 3 2 2
7 7 7 7 7 7 7 7 7 6 6 5 5 5 5 5 4 4 2 2 1 1 2 2 2 3 3 2 2 3 2 3 3 4 3 3 3 3 3 3 2 2 2
8 7 7 7 7 7 7 7 7 6 6 6 6 5 5 5 4 4 3 2 1 1 2 2 2 3 3 3 2 3 2 2 3 3 3 3 3 3 3 2 2 2 3
8 7 6 7 7 7 7 7 7 7 6 6 6 6 5 5 5 4 3 1 0 1 1 1 2 3 3 3 3 3 3 2 2 2 2 2 1 2 2 2 1 2 3
8 8 7 7 7 7 7 7 7 7 6 6 6 6 6 6 5 4 3 2 1 1 2 2 2 3 3 4 4 4 3 3 2 2 1 2 1 1 1 1 2 2 2
9 8 8 8 8 8 8 7 7 7 7 7 7 7 6 6 6 5 4 3 2 2 2 3 4 4 4 4 5 4 4 4 4 3 2 3 2 2 2 2 2 3 3
10 9 9 9 9 9 9 8 8 8 8 8 8 8 7 7 7 6 5 4 3 3 3 3 4 5 5 5 5 5 5 5 5 4 3 3 3 3 3 3 3 4 4
11 11 11 11 12 11 11 9 9 9 9 9 9 9 8 8 8 7 6 5 4 4 5 5 5 6 6 6 6 6 6 6 6 5 4 4 4 4 4 5 5 4 4
11 11 12 13 13 13 13 11 10 10 10 10 10 10 9 9 8 8 7 6 6 6 6 6 7 7 7 7 7 7 7 6 6 6 5 5 6 5 5 5 6 6 5
12 12 12 13 13 13 13 12 11 11 10 10 10 10 10 9 9 9 8 7 7 8 7 7 7 8 8 7 7 7 7 7 6 7 7 7 7 7 7 6 6 6 7
13 13 13 13 13 13 13 12 12 12 11 11 10 10 10 9 9 9 8 7 7 7 7 6 6 7 9 7 7 8 8 8 7 8 8 7 7 7 7 6 6 6 7
14 14 14 14 14 14 14 13 13 13 12 11 11 11 11 10 10 9 9 8 8 7 7 7 6 6 7 8 8 9 8 8 8 8 8 8 8 8 8 7 7 7 7
14 15 15 15 14 15 14 13 13 13 13 12 11 11 11 10 10 10 10 9 9 8 8 7 7 7 7 8 8 9 9 9 9 8 8 8 8 9 9 8 8 7 8
16 16 16 16 15 15 14 13 13 14 14 13 12 12 12 11 10 10 10 10 9 9 9 9 8 9 8 9 9 9 9 9 9 9 9 9 9 9 8 8 8 8 8
17 16 16 16 16 16 15 15 14 14 14 14 13 13 13 11 11 11 11 10 10 10 10 9 9 9 9 9 10 10 10 9 10 9 9 9 9 9 8 8 8 8 9
18 17 17 17 17 16 16 16 15 15 15 15 15 14 13 12 12 12 12 11 11 11 11 10 10 11 11 11 11 11 10 10 11 11 10 10 10 10 10 9 9 9 9
19 18 18 18 17 16 16 16 16 15 15 15 15 15 14 13 13 12 12 12 11 11 12 12 11 12 11 12 11 11 10 10 11 11 11 11 10 10 10 10 10 9 9
19 19 18 17 17 17 17 17 17 16 16 16 16 16 15 14 13 13 12 12 12 12 12 12 12 12 12 12 11 11 10 10 11 11 11 12 11 11 10 10 11 10 10
20 20 19 18 18 18 18 18 18 17 17 17 17 17 17 16 15 15 14 14 14 13 13 13 13 13 13 13 12 11 11 11 11 12 12 12 12 12 11 11 12 11 12
21 21 20 19 19 19 19 18 18 19 19 18 18 18 18 18 17 16 17 17 16 15 14 14 14 14 14 13 13 12 12 12 12 12 12 12 12 13 13 13 13 12 12
21 21 20 20 20 20 19 19 19 19 19 19 19 19 19 19 18 18 17 17 17 16 16 16 16 16 15 15 14 14 14 14 13 13 13 12 12 13 13 14 13 13 12
22 22 21 21 21 21 20 20 20 20 20 20 19 18 19 19 19 18 17 17 17 17 17 17 17 17 17 16 16 16 15 15 15 14 14 14 14 14 14 13 13 14 13
Wind_Direction
358 358 356 350 345 340 338 339 342 338 342 340 335 327 316 308 306 304 298 265 231 214 211 211 218 234 206 201 186 189 193 181 191 185 189 191 188 189 194 205 203 188 192
353 358 357 351 348 344 337 335 332 333 337 334 323 317 313 305 305 304 294 269 252 231 230 233 217 229 196 190 174 173 177 174 174 177 183 179 175 184 194 205 201 201 198
345 351 356 357 355 348 342 338 333 327 326 323 318 312 311 307 302 312 310 277 259 238 214 205 204 213 191 182 174 180 175 171 175 183 189 187 176 178 193 196 192 196 200
340 345 348 351 348 344 343 339 338 330 325 321 319 317 312 306 309 325 322 290 255 223 205 204 206 205 183 172 165 184 190 189 188 178 189 183 175 174 184 195 183 189 200
338 338 342 343 342 338 337 335 329 329 324 321 322 322 316 309 311 325 346 344 270 223 208 200 203 200 192 189 186 190 190 189 191 183 199 183 164 166 180 190 189 182 202
330 334 335 337 336 335 335 334 334 329 326 323 321 322 316 312 315 326 333 354 324 226 206 208 204 197 202 210 198 197 191 171 173 171 177 184 168 168 179 186 185 198 212
330 335 338 337 336 334 334 334 332 330 328 326 322 321 314 311 313 318 321 331 353 188 196 207 220 201 208 212 197 177 163 154 154 163 158 160 166 178 181 185 192 216 226
334 334 339 337 337 334 331 331 329 326 325 326 324 319 315 312 315 316 316 331 223 234 227 225 223 223 222 215 193 183 183 161 157 161 142 145 165 194 228 235 223 214 217
337 333 338 336 333 330 328 327 322 320 320 321 320 317 318 315 317 317 302 300 295 290 229 218 214 218 214 207 198 199 207 202 198 188 189 195 218 253 261 233 241 248 247
330 330 331 335 334 329 324 320 316 316 314 317 314 311 311 311 314 315 300 277 282 286 262 240 228 225 218 214 211 217 222 216 220 220 221 223 242 255 262 255 259 258 255
324 324 327 329 328 323 319 315 313 313 314 313 310 306 304 304 306 307 304 286 273 270 267 256 233 222 221 223 220 227 228 223 226 233 233 237 240 250 262 270 272 266 260
322 320 322 325 323 319 315 311 311 309 309 310 308 304 299 297 298 294 292 297 283 267 262 261 253 238 233 236 236 235 231 230 234 239 242 241 248 257 263 271 270 272 265
314 315 317 320 321 318 317 313 311 309 307 306 304 300 297 293 292 290 285 295 290 280 275 270 257 247 249 252 246 242 236 238 241 245 251 256 262 259 262 267 269 269 266
306 306 312 315 315 316 315 312 310 311 310 308 306 303 299 294 289 289 289 282 281 280 281 278 266 253 256 253 248 242 238 241 247 251 251 259 267 266 266 265 267 270 270
303 305 309 311 310 312 312 311 312 311 308 308 306 305 304 302 293 292 298 289 285 286 281 272 268 260 258 258 253 251 250 252 253 256 257 262 270 273 272 272 268 267 268
301 303 304 306 307 308 309 308 309 311 308 307 308 305 303 301 296 291 293 289 289 283 276 268 264 266 265 262 261 261 258 254 255 258 261 266 268 268 267 267 267 266 265
298 300 302 302 304 306 306 304 305 308 311 308 308 308 306 302 296 291 289 285 285 285 280 274 270 270 269 264 264 263 263 262 260 257 260 263 266 267 266 266 268 270 268
297 298 299 298 300 303 303 305 304 305 306 307 306 308 306 302 298 293 291 287 278 278 278 276 273 271 271 268 264 264 266 265 262 257 257 260 264 265 265 266 269 272 268
292 295 297 297 298 298 299 300 299 299 301 302 304 306 308 303 298 292 289 285 279 278 278 275 274 272 274 275 270 268 266 262 260 259 259 260 260 262 264 265 269 272 267
288 292 294 294 294 293 293 295 295 295 296 297 299 303 305 303 301 294 288 284 282 281 279 275 272 274 277 278 278 272 266 260 258 257 255 257 259 262 262 265 268 271 266
287 289 290 290 290 288 289 292 292 291 292 294 296 299 300 301 298 292 287 283 281 281 276 273 272 274 277 279 279 276 268 261 258 256 254 257 258 261 263 266 269 268 264
285 286 286 287 287 287 287 288 289 289 289 289 291 292 293 295 294 288 285 281 279 278 276 273 271 273 278 278 277 275 273 264 257 257 258 260 261 264 265 266 268 268 264
281 280 282 285 284 285 286 286 287 288 289 287 287 288 289 289 289 286 279 277 277 274 274 272 271 275 277 275 273 271 268 264 260 260 262 262 262 264 266 268 268 270 267
277 275 277 280 281 283 284 283 284 286 286 286 284 286 286 285 284 280 280 280 277 275 272 270 268 273 274 272 271 270 268 265 264 262 263 262 265 265 266 266 269 272 268
276 274 274 274 276 279 281 282 282 282 284 284 284 285 285 284 284 279 278 277 274 273 274 272 269 271 270 270 269 269 270 266 264 263 260 261 265 269 268 268 267 269 269
275 276 274 273 274 277 278 280 281 281 282 282 284 285 283 282 283 281 277 276 274 274 275 275 273 272 270 269 270 269 270 266 262 260 259 261 264 266 267 268 267 265 267